User: anonymous   Login
Location: Unspecified
(0.0000°N, 0.0000°E)
Time: 12:18:14
(UTC+01:00)
Language:

Ariane H10 - Orbit

View from above orbital plane
View from above orbital plane
View from above satellite
View from above satellite

Ground track
Ground track

The orbit data is extracted from the following two-line orbital elements,

1 21727U 91067B   17056.30676099  .00000064  00000-0  16554-3 0  9995
2 21727   4.5954  16.6438 7179277  60.7059 351.8678  2.31893010175359
Epoch (UTC): 25 February 2017 07:21:44
Eccentricity: 0.7179277
inclination: 4.5954°
perigee height: 423 km
apogee height: 35042 km
right ascension of ascending node: 16.6438°
argument of perigee: 60.7059°
revolutions per day: 2.31893010
mean anomaly at epoch: 351.8678°
orbit number at epoch: 17535

The dashed part of the orbit path shows where the satellite is in the earth's shadow,  

DLR